Hourly Data Report for October 04, 2017

All times are specified in Local Standard Time (LST). Add 1 hour to adjust for Daylight Saving Time where and when it is observed.

VICTORIA GONZALES CS
BRITISH COLUMBIA

48°24'47.896" N
123°19'29.192" W
61.00 m
1018611
71200
WLM

Download Data

Hourly Data (October 2017)
Hourly Data Report for October 4, 2017
Temp Definition
°C
Dew Point Temp Definition
°C
Rel Hum Definition
%
Wind Dir Definition
10's deg

Wind Spd Definition
km/h
Visibility Definition
km
Stn Press Definition
kPa
Hmdx Definition


Wind Chill Definition


Weather Definition


TIME
00:00 11.5 4.0 60 2 6   101.46     LegendNANA
01:00 11.0 3.7 61 36 3   101.48     LegendNANA
02:00 10.9 3.6 61 34 7   101.46     LegendNANA
03:00 9.9 2.7 61 35 15   101.40     LegendNANA
04:00 9.9 2.7 61 1 19   101.37     LegendNANA
05:00 10.7 2.0 55 1 19   101.34     LegendNANA
06:00 9.9 2.0 58 36 7   101.35     LegendNANA
07:00 9.3 2.6 63 30 6   101.38     LegendNANA
08:00 11.7 4.0 59 1 8   101.39     LegendNANA
09:00 14.0 4.9 54 2 18   101.37     LegendNANA
10:00 16.3 5.2 47 2 12   101.41     LegendNANA
11:00 17.5 4.1 41 3 6   101.37     LegendNANA
12:00 18.4 2.3 34 5 6   101.35     LegendNANA
13:00 16.0 6.7 54 22 6   101.31     LegendNANA
14:00 16.1 6.4 53 13 8   101.31     LegendNANA
15:00 16.0 5.3 49 11 5   101.29     LegendNANA
16:00 14.5 6.5 58 20 5   101.28     LegendNANA
17:00 14.2 5.6 56 23 6   101.26     LegendNANA
18:00 13.5 3.9 52 26 8   101.25     LegendNANA
19:00 11.9 2.0 51 28 7   101.25     LegendNANA
20:00 12.3 2.6 52 28 6   101.26     LegendNANA
21:00 12.9 1.3 45 20 2   101.27     LegendNANA
22:00 11.1 5.3 68 18 7   101.29     LegendNANA
23:00 10.5 6.3 76 27 4   101.30     LegendNANA

Notes on Data Quality.

Legend

  • E = Estimated
  • M = Missing
  • NA = Not Available
  • ‡ = Partner data that is not subject to review by the National Climate Archives
Date modified: